Regional Weather Roundup
Issued by NWS

Home | Current Version | Previous Version | Graphics & Text | Print | Product List | Glossary Off
Versions: 1 2 3 4 5 6 7 8 9 10 11 12 13 14 15 16 17 18 19 20 21 22 23 24 25 26 27 28 29 30 31 32 33 34 35 36 37 38 39 40 41 42 43 44 45 46 47 48 49 50

000
ASUS43 KMKX 182200
RWRWI

WISCONSIN REGIONAL WEATHER ROUNDUP
NATIONAL WEATHER SERVICE MILWAUKEE/SULLIVAN WI
500 PM CDT THU SEP 18 2014

NOTE: "FAIR" INDICATES FEW OR NO CLOUDS BELOW 12,000 FEET WITH NO
SIGNIFICANT WEATHER AND/OR OBSTRUCTIONS TO VISIBILITY.

WIZ001-002-006>008-014>016-023>028-182300-
NORTHWEST WISCONSIN

CITY           SKY/WX    TMP DP  RH WIND       PRES   REMARKS
SUPERIOR ARPT  CLOUDY    50  44  81 E8        30.09F
ASHLAND        CLOUDY    52  45  77 N7        30.10F
HAYWARD        SUNNY     59  51  75 SE5       30.07F
SIREN          SUNNY     64  53  65 SE8       30.05F
RICE LAKE      MOSUNNY   60  51  73 SE10      30.09F
LADYSMITH      SUNNY     60  51  72 S5        30.12S
EAU CLAIRE     NOT AVBL
MENOMONIE      CLEAR     67  54  64 E10       30.06F
NEW RICHMOND   SUNNY     68  55  62 SE9       30.04F
OSCEOLA        SUNNY     69  57  65 SE9       30.05F
$$

WIZ003>005-009-010-017-018-182300-
NORTH CENTRAL WISCONSIN

CITY           SKY/WX    TMP DP  RH WIND       PRES   REMARKS
WOODRUFF       PTSUNNY   57  49  75 S7        30.12F
RHINELANDER    CLOUDY    56  46  69 S8        30.13F
EAGLE RIVER    CLOUDY    54  43  66 S3        30.13S
LAND O LAKES   CLOUDY    54  44  70 S6        30.13F
PHILLIPS       MOSUNNY   56  48  76 SE6       30.11F
TOMAHAWK       MOSUNNY   56  47  70 CALM      30.13F
MEDFORD        SUNNY     55  49  79 SE6       30.12F
MERRILL        SUNNY     58  48  70 S3        30.12F
$$

WIZ029-030-035-036-043>047-182300-
CENTRAL WISCONSIN

CITY           SKY/WX    TMP DP  RH WIND       PRES   REMARKS
WAUSAU         SUNNY     57  48  72 S3        30.12F
MOSINEE        SUNNY     55  50  82 SE5       30.14F
MARSHFIELD     MOSUNNY   56  49  77 E7        30.12F
STEVENS POINT  SUNNY     55  46  73 SE5       30.14F
WAUPACA        SUNNY     62  50  65 CALM      30.15F
WAUTOMA        NOT AVBL
WISC RAPIDS    SUNNY     61  50  67 E7        30.13F
CAMP DOUGLAS   NOT AVBL
$$

WIZ011>013-019>022-031-037>040-048>050-182300-
NORTHEAST WISCONSIN

CITY           SKY/WX    TMP DP  RH WIND       PRES   REMARKS
ANTIGO         MOSUNNY   55  47  72 S6        30.15S
STURGEON BAY   CLOUDY    54  45  71 N5        30.16F
GREEN BAY      PTSUNNY   59  47  64 CALM      30.15F
MANITOWOC      NOT AVBL
APPLETON       PTSUNNY   59  46  63 VRB3      30.15F
CLINTONVILLE   SUNNY     57  45  62 CALM      30.14F
OSHKOSH        SUNNY     59  50  72 VRB5      30.14S
$$

WIZ032>034-041-042-053>061-182300-
SOUTHWEST WISCONSIN

CITY           SKY/WX    TMP DP  RH WIND       PRES   REMARKS
LA CROSSE      PTSUNNY   72  56  57 SE9       30.07F
SPARTA         SUNNY     65  52  62 E6        30.10F
VIROQUA        FAIR      65  54  66 SE7       30.10S
BOSCOBEL       MOSUNNY   70  56  61 VRB6      30.08F
PRAIRIE DU CHI SUNNY     71  51  49 SE5       30.07S
PLATTEVILLE    FAIR      68  53  57 CALM      30.10S
$$

WIZ056-057-062-063-064-067-068-182300-
SOUTH CENTRAL WISCONSIN

CITY           SKY/WX    TMP DP  RH WIND       PRES   REMARKS
BARABOO/DELLS  SUNNY     62  51  65 E7        30.12F
LONE ROCK      NOT AVBL
WATERTOWN      MOSUNNY   65  54  68 SE3       30.12S
MADISON        PTSUNNY   66  53  63 VRB5      30.12F
MIDDLETON      FAIR      65  52  61 E6        30.12F
MONROE         MOSUNNY   66  52  59 E5        30.11S
JANESVILLE     PTSUNNY   70  54  56 SE12      30.10F
$$

WIZ051-052-058>065-066-070>072-182300-
SOUTHEAST WISCONSIN

CITY           SKY/WX    TMP DP  RH WIND       PRES   REMARKS
MILWAUKEE      PTSUNNY   57  51  80 NE9       30.15F
WAUKESHA       MOSUNNY   59  50  72 E7        30.15S
MILWAUKEE/TIMM CLOUDY    57  48  72 CALM      30.15F
RACINE         CLOUDY    58  52  80 N9        30.16F
BURLINGTON     MOSUNNY   62  52  70 E8        30.14S
KENOSHA        CLOUDY    59  53  80 NE8       30.15S
FOND DU LAC    SUNNY     62  51  67 NE6       30.14S
SHEBOYGAN      PTSUNNY   56  48  74 E7        30.15F
WEST BEND      CLOUDY    59  48  67 E6        30.15S
JUNEAU         CLOUDY    62  53  72 E3        30.14S
$$

LSZ147-162-182300-
LAKE SUPERIOR

STATION/POSITION TIME  TEMP    WIND        PRES    WAVE
                       AIR SEA DIR/SP/G            HT/PER
                 (UTC) (F)     (DEG/KT/KT) (MB)    (FT/S)
W MID LAKE BUOY  2050   45 47   60/ 10/ 12 1020.8F   1/ 3
DEVILS ISLAND    2100   46      70/  7/  8 1020.8F
PORT WING        2100   50      40/ 13/ 16 1019.3F
SAXON HARBOR     2100   50      40/  6/  8 1020.3F
$$

LMZ867-665-643>646-182300-
LAKE MICHIGAN

STATION/POSITION TIME  TEMP    WIND        PRES    WAVE
                       AIR SEA DIR/SP/G            HT/PER
                 (UTC) (F)     (DEG/KT/KT) (MB)    (FT/S)
N MID LAKE BUOY  2050   52 59   90/  4/  6 1022.3F   1/ 3
NORTHPORT PIER   2100   53     130/  5/  7 1022.0S
KEWAUNEE LAKESHO 2100   54      80/  5/  8 1020.6F
SHEBOYGAN LAKESH 2100   51 49   50/ 14/ 14 1021.7F
PORT WASHINGTON  2140   58      70/  5/  8 1021.7S
ATWATER BUOY     2100   56      30/  8/ 10 1022.1F
MILWAUKEE LAKESH 2100   56      40/  7/ 10   N/A
S MID LAKE BUOY  2050   63 66   50/  2/  6 1020.6S   2/ 6
KENOSHA   LAKESH 2100   56      10/ 13/ 14 1020.3F
$$

TC  - TEMPERATURE IN CELSIUS
VSB - VISIBILITY IN STATUTE MILES
WCI - WIND CHILL INDEX
HX  - HEAT INDEX



USA.gov is the U.S. government's official web portal to all federal, state and local government web resources and services.